This is the latest recevied weather packets stored in our database for station/object N8SDR. If no packets are shown the sender has not sent any weather packets the latest 10 day(s).
| Time | Temp. | Humidity | Pressure | Rain* | Wind** | Luminosity | Snow |
|---|---|---|---|---|---|---|---|
| 1778009313 | 17.22° C | 92% | 1005.4 hPa | 4.83 mm | - | 50 W/m² | - |
| 1778009012 | 17.78° C | 89% | 1005.3 hPa | 3.05 mm | - | 41 W/m² | - |
| 1778008709 | 19.44° C | 83% | 1005.3 hPa | 1.27 mm | - | 78 W/m² | - |
| 1778008408 | 19.44° C | 79% | 1005.1 hPa | 0 mm | - | 32 W/m² | - |
| 1778008104 | 19.44° C | 77% | 1004.8 hPa | 0 mm | - | 49 W/m² | - |
| 1778007799 | 20° C | 77% | 1004.8 hPa | 0 mm | - | 79 W/m² | - |
| 1778007495 | 20° C | 77% | 1004.8 hPa | 0 mm | - | 68 W/m² | - |
| 1778007192 | 20° C | 76% | 1004.7 hPa | 0 mm | - | 105 W/m² | - |
| 1778006888 | 20° C | 76% | 1004.9 hPa | 0 mm | - | 83 W/m² | - |
| 1778006585 | 20° C | 76% | 1005.1 hPa | 0 mm | - | 75 W/m² | - |
| 1778006282 | 20° C | 75% | 1004.7 hPa | 0 mm | - | 164 W/m² | - |
| 1778005979 | 20° C | 75% | 1004.8 hPa | 0 mm | - | 204 W/m² | - |
| 1778005676 | 20° C | 75% | 1004.8 hPa | 0 mm | - | 197 W/m² | - |
| 1778005372 | 20° C | 75% | 1005 hPa | 0 mm | - | 156 W/m² | - |
| 1778005069 | 20° C | 75% | 1004.9 hPa | 0 mm | - | 125 W/m² | - |
| 1778004767 | 19.44° C | 75% | 1005.1 hPa | 0 mm | - | 151 W/m² | - |
| 1778004463 | 19.44° C | 75% | 1005.1 hPa | 0 mm | - | 141 W/m² | - |
| 1778004159 | 19.44° C | 75% | 1005.2 hPa | 0 mm | - | 84 W/m² | - |
| 1778003856 | 19.44° C | 74% | 1005.2 hPa | 0 mm | - | 106 W/m² | - |
| 1778003553 | 20° C | 74% | 1005.5 hPa | 0 mm | - | 86 W/m² | - |
| 1778003249 | 20° C | 74% | 1005.3 hPa | 0 mm | - | 168 W/m² | - |
| 1778002946 | 20° C | 74% | 1005.4 hPa | 0 mm | - | 218 W/m² | - |
| 1778002642 | 20° C | 74% | 1005.3 hPa | 0 mm | - | 255 W/m² | - |
| 1778002339 | 20° C | 75% | 1005.4 hPa | 0 mm | - | 218 W/m² | - |
| 1778002036 | 20° C | 74% | 1005.6 hPa | 0 mm | - | 126 W/m² | - |
* Rain latest hour (hover to see other rain measurements)
** Current wind speed in m/s (hover to see current wind gust speed)